This is the latest recevied weather packets stored in our database for station/object N0HOT. If no packets are shown the sender has not sent any weather packets the latest 10 day(s).
| Time | Temp. | Humidity | Pressure | Rain* | Wind** | Luminosity | Snow |
|---|---|---|---|---|---|---|---|
| 1777832978 | 23.89° C | 25% | 1004.5 hPa | 0 mm | - | 871 W/m² | - |
| 1777832678 | 23.89° C | 25% | 1004.5 hPa | 0 mm | - | 879 W/m² | - |
| 1777832375 | 23.33° C | 25% | 1004.5 hPa | 0 mm | - | 872 W/m² | - |
| 1777832072 | 23.33° C | 28% | 1004.8 hPa | 0 mm | - | 880 W/m² | - |
| 1777831767 | 23.89° C | 26% | 1004.5 hPa | 0 mm | - | 897 W/m² | - |
| 1777831466 | 23.89° C | 26% | 1004.8 hPa | 0 mm | - | 859 W/m² | - |
| 1777831162 | 23.89° C | 27% | 1004.8 hPa | 0 mm | - | 835 W/m² | - |
| 1777830861 | 23.89° C | 26% | 1004.8 hPa | 0 mm | - | 866 W/m² | - |
| 1777830556 | 23.89° C | 28% | 1004.8 hPa | 0 mm | - | 865 W/m² | - |
| 1777830255 | 23.89° C | 26% | 1004.8 hPa | 0 mm | - | 848 W/m² | - |
| 1777829949 | 23.33° C | 25% | 1004.8 hPa | 0 mm | - | 876 W/m² | - |
| 1777829646 | 23.33° C | 26% | 1004.8 hPa | 0 mm | - | 897 W/m² | - |
| 1777829343 | 23.33° C | 25% | 1004.8 hPa | 0 mm | - | 913 W/m² | - |
| 1777829040 | 23.33° C | 26% | 1004.8 hPa | 0 mm | - | 906 W/m² | - |
| 1777828736 | 23.33° C | 27% | 1004.8 hPa | 0 mm | - | 903 W/m² | - |
| 1777828433 | 23.33° C | 27% | 1004.8 hPa | 0 mm | - | 908 W/m² | - |
| 1777828130 | 23.33° C | 27% | 1005.6 hPa | 0 mm | - | 894 W/m² | - |
| 1777827826 | 22.78° C | 28% | 1005.3 hPa | 0 mm | - | 871 W/m² | - |
| 1777827523 | 22.78° C | 26% | 1005.3 hPa | 0 mm | - | 900 W/m² | - |
| 1777827221 | 22.22° C | 26% | 1005.3 hPa | 0 mm | - | 913 W/m² | - |
| 1777826917 | 22.22° C | 26% | 1005.6 hPa | 0 mm | - | 815 W/m² | - |
| 1777826615 | 22.22° C | 27% | 1005.6 hPa | 0 mm | - | 886 W/m² | - |
| 1777826310 | 22.22° C | 28% | 1005.6 hPa | 0 mm | - | 1697 W/m² | - |
| 1777826008 | 22.22° C | 30% | 1005.6 hPa | 0 mm | - | 1392 W/m² | - |
| 1777825705 | 22.22° C | 28% | 1005.6 hPa | 0 mm | - | 668 W/m² | - |
* Rain latest hour (hover to see other rain measurements)
** Current wind speed in m/s (hover to see current wind gust speed)